Regional Weather Roundup
Issued by NWS Cleveland, OH

Home | Current Version | Previous Version | Text Only | Print | Product List | Glossary On
Versions: 1 2 3 4 5 6 7 8 9 10 11 12 13 14 15 16 17 18 19 20 21 22 23 24 25 26 27 28 29 30 31 32 33 34 35 36 37 38 39 40 41 42 43 44 45 46 47 48 49 50
000
ASUS41 KCLE 231912
RWRCLE
OHIO REGIONAL WEATHER ROUNDUP
NATIONAL WEATHER SERVICE WILMINGTON, OH
200 PM EST THU NOV 23 2017

NOTE: "FAIR" INDICATES FEW OR NO CLOUDS BELOW 12,000 FEET WITH NO
SIGNIFICANT WEATHER AND/OR OBSTRUCTIONS TO VISIBILITY.

OHZ001>008-015>018-024>027-034-035-043-044-232000-
   NORTHWEST OHIO

CITY           SKY/WX    TMP DP  RH WIND       PRES   REMARKS
DEFIANCE       FAIR      38  23  55 SW12      30.01F
FINDLAY        CLOUDY    41  25  53 S10       30.02F
TOLEDO EXPRESS CLOUDY    39  26  59 SW13      30.00F
TOLEDO EXEC    CLOUDY    38  25  59 SW15      30.01F
LIMA           CLOUDY    39  28  64 S12       30.01F
$$

OHZ009>014-019>023-028>033-038-089-232000-
   NORTHEAST OHIO

CITY           SKY/WX    TMP DP  RH WIND       PRES   REMARKS
CLE-HOPKINS    PTSUNNY   40  24  53 SW10      30.05F
CLE-LAKEFRONT  CLOUDY    39  22  50 S9        30.03F
CUY CO. ARPT   CLOUDY    39  23  52 SW14      30.03F
LORAIN-ELYRIA  CLOUDY    38  21  50 SW12      30.03F
ASHTABULA      CLOUDY    36  23  59 SW10      30.03F
AKRON-CANTON   PTSUNNY   38  23  55 SW7       30.03F
WOOSTER        CLOUDY    38  23  55 VRB7      30.04F
MANSFIELD      CLOUDY    38  24  57 S10       30.02F
YOUNGSTOWN     CLOUDY    39  23  52 SW12      30.03F
$$

OHZ042-051>053-060>062-070>072-077>081-232000-
  SOUTHWEST OHIO

CITY           SKY/WX    TMP DP  RH WIND       PRES   REMARKS
CINC-COVINGTON FAIR      43  27  53 S5        30.06F
CINC-LUNKEN    FAIR      43  26  51 SE6       30.09F
HAMILTON       CLOUDY    44  27  51 SE5       30.07F
DAYTON         PTSUNNY   40  28  62 S7        30.05F
WRIGHT-PAT AFB CLOUDY    41  24  49 S7        30.05F
DAYTON GENERAL CLOUDY    40  25  55 SW5       30.05F
WILMINGTON     FAIR      41  27  57 S7        30.05F
$$

OHZ036-037-039>041-045>050-054>059-063>069-073>076-082>088-232000-
  CENTRAL AND SOUTHEAST OHIO

CITY           SKY/WX    TMP DP  RH WIND       PRES   REMARKS
COLUMBUS       PTSUNNY   40  26  57 VRB7      30.06F
OSU AIRPORT    CLOUDY    40  27  59 VRB6      30.05F
BOLTON FIELD   CLOUDY    39  27  60 S6        30.07F
RICKENBACK AFB CLOUDY    38  26  60 S6        30.07F
NEWARK         FAIR      41  24  51 S9        30.07F
MARION         CLOUDY    38  25  59 S10       30.04F
LANCASTER      PTSUNNY   39  26  59 SW6       30.08F
ZANESVILLE     FAIR      40  23  50 S6        30.07F
NEW PHILLY     FAIR      40  23  50 VRB3      30.07F
$$



USA.gov is the U.S. government's official web portal to all federal, state and local government web resources and services.